Location: Kuffner-Sternwarte
(48.2130°N, 16.2960°E)
Time: 16:41:47
(UTC+02:00)

COROT - Pass Details

Date: 10 May 2026
Orbit: 594 x 855 km, 90.1° (Epoch: 21 May)

Event Time Altitude Azimuth Distance (km) Brightness Sun altitude
Rises 00:51:03 0° 355° (N) 3,401 10.8 -24.2°
Reaches altitude 10° 00:53:38 10° 347° (NNW) 2,437 9.6 -24.2°
Maximum altitude 00:58:35 36° 283° (WNW) 1,233 7.1 -24.2°
Enters shadow 00:59:50 32° 253° (WSW) 1,328 7.0 -24.2°
